Weather History for Beckley, WV

Change the Weather History Date:

Wednesday, August 21, 2013

  Actual Average Record
Temperature  
Mean Temperature 71 °F 70 °F  
Max Temperature 79 °F 79 °F 95 °F (1936)
Min Temperature 62 °F 60 °F 34 °F (1940)
Degree Days  
Heating Degree Days 0 0  
Month to date heating degree days 15 0  
Since 1 June heating degree days 27 47  
Since 1 July heating degree days 20 8  
Cooling Degree Days 6 5  
Month to date cooling degree days 91 118  
Year to date cooling degree days 488 451  
Since 1 June cooling degree days 421 410  
Growing Degree Days 20 (Base 50)    
Moisture  
Dew Point 65 °F    
Average Humidity 81    
Maximum Humidity 100    
Minimum Humidity 62    
Precipitation  
Precipitation 0.07 in 0.11 in 1.13 in (1980)
Month to date precipitation 4.71 2.56  
Year to date precipitation 29.53 28.75  
Snow  
Snow 0.00 in - - ()
Month to date snowfall 0.0  
Since 1 September snowfall 72.0  
Snow Depth 0.00 in    
Sea Level Pressure  
Sea Level Pressure 30.18 in    
Wind  
Wind Speed 5 mph (SW)    
Max Wind Speed 13 mph    
Max Gust Speed 15 mph    
Visibility 10 miles    
Events Rain    
T = Trace of Precipitation, MM = Missing Value Source: NWS Daily Summary

Daily Weather History Graph

Daily Weather History Graph

Search for Another Location

Airport:

Trip Planner

Search our weather history database for the weather conditions in past years. The results will help you decide how hot, cold, wet, or windy it might be!

Date:

Astronomy

Aug. 21, 2013 Rise Set
Actual Time 6:45 AM EDT 8:09 PM EDT
Civil Twilight 6:17 AM EDT 8:36 PM EDT
Nautical Twilight 5:44 AM EDT 9:09 PM EDT
Astronomical Twilight 5:10 AM EDT 9:43 PM EDT
Moon 8:19 PM EDT (8/21) 7:22 AM EDT (8/21)
Length of Visible Light 14h 18m
Length of Day
13h 23m
Full, 100% of the Moon is Illuminated
Aug 21
Full
Aug 28
Last Quarter
Sep 5
New
Sep 12
First Quarter
Sep 19
Full

Hourly Weather History & Observations

Time (EDT) Temp. Dew Point Humidity Pressure Visibility Wind Dir Wind Speed Gust Speed Precip Events Conditions
12:51 AM 68.0 °F 64.9 °F 90% 30.15 in 10.0 mi SE 5.8 mph - N/A   Clear
1:51 AM 68.0 °F 64.0 °F 87% 30.15 in 10.0 mi SE 8.1 mph - N/A   Mostly Cloudy
2:51 AM 69.1 °F 64.0 °F 84% 30.14 in 10.0 mi SE 5.8 mph - N/A   Overcast
3:51 AM 68.0 °F 64.0 °F 87% 30.15 in 9.0 mi SSE 6.9 mph - 0.01 in Rain Light Rain
4:51 AM 66.9 °F 64.0 °F 90% 30.13 in 10.0 mi Calm Calm - 0.01 in   Scattered Clouds
5:51 AM 64.9 °F 64.0 °F 97% 30.14 in 10.0 mi Calm Calm - N/A   Scattered Clouds
6:51 AM 64.9 °F 63.0 °F 93% 30.17 in 10.0 mi South 4.6 mph - N/A   Mostly Cloudy
7:51 AM 68.0 °F 64.0 °F 87% 30.18 in 10.0 mi SSE 4.6 mph - N/A   Mostly Cloudy
8:51 AM 71.1 °F 64.9 °F 81% 30.19 in 10.0 mi SSW 3.5 mph - N/A   Partly Cloudy
9:51 AM 71.1 °F 64.9 °F 81% 30.20 in 10.0 mi SW 3.5 mph - N/A   Mostly Cloudy
10:51 AM 73.0 °F 66.0 °F 79% 30.22 in 10.0 mi WSW 5.8 mph - N/A   Partly Cloudy
11:51 AM 73.9 °F 66.0 °F 76% 30.20 in 10.0 mi SSW 3.5 mph - N/A   Mostly Cloudy
12:48 PM 75.2 °F 66.2 °F 73% 30.29 in 10.0 mi SW 5.8 mph - N/A   Scattered Clouds
12:51 PM 77.0 °F 66.9 °F 71% 30.19 in 10.0 mi West 4.6 mph - N/A   Partly Cloudy
1:51 PM 78.1 °F 66.0 °F 66% 30.17 in 10.0 mi Variable 4.6 mph - N/A   Mostly Cloudy
2:01 PM 78.8 °F 64.4 °F 61% 30.27 in 10.0 mi SSW 6.9 mph - N/A   Mostly Cloudy
2:51 PM 78.1 °F 64.0 °F 62% 30.14 in 10.0 mi SW 6.9 mph - N/A   Partly Cloudy
3:51 PM 77.0 °F 64.9 °F 66% 30.14 in 10.0 mi WSW 6.9 mph - N/A   Clear
4:51 PM 75.9 °F 66.0 °F 71% 30.13 in 10.0 mi SW 8.1 mph - N/A   Partly Cloudy
5:51 PM 75.0 °F 66.0 °F 73% 30.14 in 10.0 mi SW 6.9 mph - N/A   Partly Cloudy
6:51 PM 73.9 °F 66.0 °F 76% 30.12 in 10.0 mi SW 6.9 mph - N/A   Clear
7:51 PM 72.0 °F 66.0 °F 81% 30.14 in 10.0 mi WSW 5.8 mph - 0.00 in Rain Light Rain
8:51 PM 69.1 °F 66.9 °F 93% 30.13 in 9.0 mi WSW 3.5 mph - 0.05 in Rain Light Rain
9:16 PM 69.8 °F 66.2 °F 88% 30.25 in 9.0 mi Variable 4.6 mph - 0.00 in   Overcast
9:25 PM 69.8 °F 66.2 °F 88% 30.25 in 10.0 mi West 5.8 mph - 0.00 in   Overcast
9:32 PM 68.0 °F 66.2 °F 94% 30.25 in 10.0 mi West 4.6 mph - 0.00 in   Overcast
9:51 PM 68.0 °F 64.9 °F 90% 30.17 in 10.0 mi NW 5.8 mph - 0.00 in   Overcast
10:04 PM 68.0 °F 64.4 °F 88% 30.25 in 10.0 mi North 10.4 mph - N/A   Mostly Cloudy
10:10 PM 66.2 °F 64.4 °F 94% 30.25 in 10.0 mi North 8.1 mph - N/A   Mostly Cloudy
10:22 PM 66.2 °F 62.6 °F 88% 30.25 in 10.0 mi NE 3.5 mph - N/A   Scattered Clouds
10:51 PM 66.0 °F 62.1 °F 87% 30.16 in 10.0 mi Calm Calm - N/A   Partly Cloudy
11:43 PM 62.6 °F 60.8 °F 94% 30.24 in 2.0 mi ESE 4.6 mph - N/A   Clear
11:51 PM 62.1 °F 61.0 °F 96% 30.16 in 2.5 mi SSE 4.6 mph - N/A   Clear